Current Version              Previous Version:    01  02  03  04  05  06  07  08  09  10  11  12  13  14  15  16  17  18  19  20  21  22  23  24  25  26  27  28  29  30  
   31  32  33  34  35  36  37  38  39  40  41  42  43  44  45  46  47  48  49  50  51  52  53  54  55  56  57  58  59  60  

[Printable]
579
ASUS44 KFWD 211510
RWRTX
NORTH TEXAS HOURLY WEATHER ROUNDUP
NATIONAL WEATHER SERVICE FORT WORTH TX
1000 AM CDT TUE OCT 21 2014

NOTE: "FAIR" INDICATES FEW OR NO CLOUDS BELOW 12,000 FEET WITH NO
SIGNIFICANT WEATHER AND/OR OBSTRUCTIONS TO VISIBILITY.

TXZ118-119-211600-
DALLAS/FORT WORTH METROPLEX

CITY           SKY/WX    TMP DP  RH WIND       PRES   REMARKS
DFW AIRPORT    MOSUNNY   68  60  75 S3        30.12R
DALLAS LOVE    MOSUNNY   69  59  70 CALM      30.12R
FTW MEACHAM    SUNNY     69  60  73 CALM      30.11S
DAL-EXECUTIVE  SUNNY     71  60  68 CALM      30.12R
FTW-ALLIANCE   MOSUNNY   68  61  78 CALM      30.12R
FTW-NAS-JRB    MOSUNNY   69  58  67 E3        30.16R
FTW-SPINKS     SUNNY     66  61  82 CALM      30.13R
ARLINGTON      SUNNY     69  60  73 CALM      30.12R
GRAND PRAIRIE  SUNNY     66  61  82 MISG      30.13S
ADDISON        SUNNY     70  59  68 SW5       30.13R
MESQUITE       SUNNY     66  59  77 CALM      30.12S
LANCASTER      SUNNY     66  58  73 CALM      30.13S
$$

TXZ091>094-102>105-117-120-121-131>134-211600-
NORTH CENTRAL TEXAS

CITY           SKY/WX    TMP DP  RH WIND       PRES   REMARKS
SHRMAN/DENISON SUNNY     68  63  84 CALM      30.13S
GAINESVILLE    SUNNY     67  59  77 MISG      30.13F
BOWIE          SUNNY     68  62  82 S3        30.13R
BRIDGEPORT     SUNNY     69  62  80 CALM      30.14R
DECATUR        SUNNY     70  59  69 SW6       30.13R
DENTON         SUNNY     66  60  81 S3        30.12R HAZE
MCKINNEY       SUNNY     68  60  75 CALM      30.12R
GREENVILLE     SUNNY     68  57  68 CALM      30.13S
ROCKWALL       SUNNY     69  60  73 SW5       30.12R
TERRELL        SUNNY     67  59  75 CALM      30.13R
WAXAHACHIE     SUNNY     68  62  80 CALM      30.13S
CLEBURNE       SUNNY     68  63  83 CALM      30.14R
GRANBURY       SUNNY     67  61  80 CALM      30.13S
$$

TXZ083>090-098>101-113>116-127>130-139>142-154-155-211600-
WESTERN NORTH TEXAS

CITY           SKY/WX    TMP DP  RH WIND       PRES   REMARKS
WICHITA FALLS  SUNNY     68  59  73 S5        30.10S
WF-KICKAPOO    SUNNY     68  58  70 SW5       30.12S
VERNON         SUNNY     68  55  64 CALM      30.11S
ABILENE        MOSUNNY   68  57  68 SW3       30.13R
ABILENE-DYESS  MOSUNNY   70  58  65 S5        30.12R
BRECKENRIDGE   SUNNY     69  57  67 MISG      30.12R HAZE
GRAHAM         SUNNY     70  60  72 S3        30.11S
MINERAL WELLS  SUNNY     66  59  78 SE3       30.11S HAZE
STEPHENVILLE   SUNNY     66  60  78 CALM      30.15S
COMANCHE       SUNNY     64  62  90 CALM      30.14R
BROWNWOOD      SUNNY     64  59  82 CALM      30.13S
COLEMAN        SUNNY     64  58  81 CALM      30.14R
BRADY          SUNNY     68  57  68 SE3       30.12R
$$

TXZ143>147-156>162-174-175-211600-
CENTRAL TEXAS

CITY           SKY/WX    TMP DP  RH WIND       PRES   REMARKS
WACO           SUNNY     67  61  81 CALM      30.12R
WACO-TSTC      SUNNY     64  63  94 CALM      30.12R
WACO-MCGREGOR  SUNNY     64  57  77 NE3       30.13S
HILLSBORO      SUNNY     69  57  65 CALM      30.12S
CORSICANA      SUNNY     67  60  78 NE3       30.13R
MEXIA          SUNNY     67  56  66 CALM      30.11R
HEARNE         SUNNY     67  59  77 CALM      30.12S
CAMERON        SUNNY     66  61  82 CALM      30.11S
TEMPLE         SUNNY     70  57  64 CALM      30.11S
KILLEEN        SUNNY     68  61  77 N3        30.11R FOG
KILLEEN-SKYLRK SUNNY     66  57  72 NE3       30.09F
FORT HOOD      SUNNY     72  62  71 N3        30.11R
GATESVILLE     SUNNY     64  61  88 CALM      30.14R
HAMILTON       SUNNY     69  61  76 CALM      30.13S
LAMPASAS       SUNNY     67  62  84 CALM      30.11R
$$

TXZ095>097-106>112-122>126-135>138-148>153-164>167-211600-
EAST TEXAS

CITY           SKY/WX    TMP DP  RH WIND       PRES   REMARKS
PARIS          CLOUDY    64  55  72 CALM      30.14R
SULPHUR SPRNGS   N/A     66  59  79 E3        30.16R
MOUNT PLEASANT PTSUNNY   65  60  86 CALM      30.15R
MINEOLA        SUNNY     66  61  82 CALM      30.14R
TYLER          SUNNY     69  54  58 CALM      30.13R
LONGVIEW       SUNNY     66  57  72 S3        30.13R
MARSHALL       SUNNY     69  58  69 CALM      30.14S
ATHENS         SUNNY     64  57  77 CALM      30.12S
PALESTINE      SUNNY     66  61  82 CALM      30.13R
JACKSONVILLE   SUNNY     69  55  60 SE3       30.14S
HENDERSON      SUNNY     67  56  68 SE3       30.14S
NACOGDOCHES    SUNNY     68  55  64 E6        30.13R
LUFKIN         SUNNY     71  59  65 E6        30.11S
$$

SUPPLEMENTAL OBSERVATIONS (CENTRAL)

CITY           SKY/WX    TMP DP  RH WIND       PRES   REMARKS
CADDO GRASSLND   N/A    N/A N/A N/A S2          N/A
PAT MAYSE LAKE   N/A     63  59  88 CALM        N/A
GREENVILLE       N/A    N/A N/A N/A CALM        N/A
CEDAR HILL       N/A     70  63  78 NW1         N/A
PALESTINE        N/A     66  59  77 NE3         N/A
MCGREGOR         N/A     66  59  77 NE5         N/A
TEMPLE           N/A     70  59  68 NE6         N/A
$$

SUPPLEMENTAL OBSERVATIONS (WEST)

CITY           SKY/WX    TMP DP  RH WIND       PRES   REMARKS
MILLERS CREEK    N/A     66  59  77 S5          N/A
POSSUM KINGDOM   N/A     70  57  64 E2          N/A
LBJ GRASSLAND    N/A     72  61  68 S5          N/A
GRANBURY         N/A    N/A N/A N/A CALM        N/A
HAMBY            N/A     70  57  64 SW6         N/A
IVIE RESERVOIR   N/A     70  57  64 S2          N/A
COLORADO BEND    N/A    N/A N/A N/A E2          N/A
$$

SUPPLEMENTAL OBSERVATIONS (EAST)

CITY           SKY/WX    TMP DP  RH WIND       PRES   REMARKS
CLARKSVILLE      N/A     66  61  82 SE2         N/A
TEXARKANA        N/A     70  59  68 S2          N/A
GILMER           N/A     70  59  68 S1          N/A
HENDERSON        N/A     70  55  60 S3          N/A
LUFKIN           N/A     70  59  68 MISG        N/A
N SABINE NF      N/A     61  59  94 MISG        N/A
$$

SUPPLEMENTAL OBSERVATIONS ARE A COLLECTION OF AUTOMATED INSTRUMENTS
THAT ARE MAINTAINED BY A VARIETY OF FEDERAL AND STATE AGENCIES.
CERTAIN ELEMENTS...SUCH AS HUMIDITY VALUES AND SUSTAINED WIND
SPEEDS...MAY BE APPROXIMATED.